THORAD AGENA D DEB

Satellite information

Favourite Embed

Satellite Type and Status

DEBRISIN ORBIT

Key statistics

Satellite THORAD AGENA D DEB at a glance.

Uptime

20476

Days in orbit

Revolutions

≈ 14.1

Per day

Orbit

LEO

Low Earth Orbit

Inclination

70.1

Latest

Satellite identification and parameters

Extended collection of information and parameters for THORAD AGENA D DEB.

Object identification

Identified? True

Debris? True

Object name: THORAD AGENA D DEB

International designator: 1969-082P

Object number (NORAD): 4145

Object ID (CCSDS): 4145

Country: UNITED STATES OF AMERICA (US)

Current information (Y/N): Y

RCS size: MEDIUM

Orbital parameters

Period: 102.005 minutes

Inclination: 70.0594 deg

SMA: 7231.695 km

Apoapsis: 898.092 km

Periapsis: 809.028 km

RAAN: 309.3208 deg

Eccentricy: 0.0061579

Argument of periapsis: 221.8565 deg

Mean anomaly: 137.7833 deg

Mean motion: 14.11700726 rev/day

Mean motion (dot): -0.00000067 rev/day2

B* drag term: -0.0000063587 1/REarth

Two-line elements (TLE)

Creation date: Oct. 21, 2025, 11:56 p.m.

Reference frame: TEME

Reference center: EARTH

Epoch: Oct. 21, 2025, 7:36 p.m. UTC

TLE line 0: 0 THORAD AGENA D DEB

TLE line 1: 1 4145U 69082P 25294.81722315 -.00000067 00000-0 -63587-5 0 9999

TLE line 2: 2 4145 70.0594 309.3208 0061579 221.8565 137.7833 14.11700726884082

Live tracking on map

Real-time ground track for satellite THORAD AGENA D DEB.

In-orbit conjunctions

A list of the most updated potential collisions computed for object THORAD AGENA D DEB.

Target Orbit TCA Probability of collision Miss distance Type
SL-3 R/B LEO 2025-02-04 22:02:17 0.000233032 409.0 (m) ROCKET BODY
DELTA 1 DEB SSO 2024-06-12 13:27:30 0.0001500247 147.0 (m) DEBRIS

Associated space launch

Poppy was the follow-on ELINT system, which succeeded the Grab ELINT satellite system.

THORAD AGENA D DEB was lifted into orbit during the mission ‘Thorad SLV-2G Agena D | Poppy 8A,B,C,D’, on board a Thorad SLV-2G Agena D space rocket.

The launch took place on Sept. 30, 1969, 1:40 p.m. from Space Launch Complex 1W.

For more information about the launch, click the button.

Launch to space Thorad SLV-2G Agena D | Poppy 8A,B,C,D
Thorad SLV-2G Agena D | Poppy 8A,B,C,D

Agency: N/A

Status: Launch Successful

Launch date: Sept. 30, 1969, 1:40 p.m. UTC

Rocket: Thorad SLV-2G Agena D

Launch pad: Space Launch Complex 1W

Location: Vandenberg SFB, CA, USA

...

Latest news about this satellite

There are no fresh news available about this satellite. Check back as we update our databases every day.


Newsletter sign-up

Weekly statistics, charts and insights to help you stay on top of the space industry.